Location: Newark
(34.0635°N, 86.7609°W)
Time: 00:01:25
(UTC+00:00)

N. Korean satellite - Pass Details

Date: 18 December 2019
Orbit: 454 x 507 km, 97.2° (Epoch: 21 January)

Event Time Altitude Azimuth Distance (km) Brightness Sun altitude
Rises 23:08:00 0° 177° (S) 2,591 10.6 -6.0°
Reaches altitude 10° 23:10:07 10° 181° (S) 1,707 9.7 -6.4°
Maximum altitude 23:13:43 55° 260° (W) 609 7.5 -7.1°
Drops below altitude 10° 23:17:20 10° 339° (NNW) 1,699 9.3 -7.8°
Sets 23:19:26 0° 344° (NNW) 2,577 10.2 -8.2°
